FW7203 Weather Reports


time (UTC)temp
C
wind
direction
speed
KPH
gust
KPH
rain 1hr
cm
rain 24hr
cm
rain mn
cm
humidity
%
barometer
mb
20260502181545 22 33 4.8 16.1 0.00 2.54 0.00 61 1020.4
20260502181028 21 130 8.0 25.7 0.00 2.54 0.00 59 1020.6
20260502180526 21 81 9.7 25.7 0.00 2.54 0.00 60 1020.5
20260502164026 19 342 12.9 25.7 0.00 4.50 0.00 68 1020.6
20260502163526 19 360 9.7 25.7 0.00 4.50 0.00 70 1020.7
20260502163041 18 77 11.3 27.4 0.00 4.50 0.00 68 1020.7
20260502162529 18 110 11.3 27.4 0.00 4.50 0.00 68 1020.6
20260502162026 18 11 14.5 27.4 0.00 4.50 0.00 68 1020.7
20260502161540 19 42 6.4 25.7 0.00 4.50 0.00 72 1020.4
20260502161026 18 360 12.9 25.7 0.00 4.50 0.00 70 1020.5
20260502160526 18 36 9.7 24.1 0.00 4.50 0.00 69 1020.3
20260502152026 18 33 6.4 22.5 0.00 4.57 0.00 78 1020.5
20260502151607 17 351 8.0 22.5 0.00 4.57 0.00 77 1020.4
20260502151026 17 360 11.3 22.5 0.00 4.57 0.00 77 1020.4
20260502150526 17 17 11.3 22.5 0.00 4.57 0.00 78 1020.4
20260502130530 13 106 6.4 17.7 0.00 5.03 0.00 90 1019.4
20260502123529 13 40 4.8 17.7 0.00 5.41 0.00 92 1018.9
20260502123044 13 360 6.4 17.7 0.00 5.41 0.00 91 1018.7
20260502122526 13 323 4.8 17.7 0.00 5.41 0.00 92 1018.8
20260502122034 12 42 4.8 14.5 0.00 5.41 0.00 92 1018.7
20260502121541 12 68 8.0 14.5 0.00 5.41 0.00 91 1018.6
20260502121030 12 355 6.4 16.1 0.00 5.41 0.00 92 1018.4
20260502120529 12 44 4.8 16.1 0.00 5.41 0.00 91 1018.4
20260502115529 12 43 8.0 16.1 0.00 5.41 0.00 91 1018.2
20260502115030 12 35 6.4 16.1 0.00 5.41 0.00 91 1018.2
20260502114545 12 350 6.4 17.7 0.00 5.41 0.00 91 1018.1
20260502114029 12 57 6.4 17.7 0.00 5.41 0.00 91 1018.1
20260502113533 12 355 9.7 17.7 0.00 5.41 0.00 91 1018.0
20260502113050 12 37 6.4 17.7 0.00 5.41 0.00 92 1018.0
20260502112529 12 62 8.0 17.7 0.00 5.41 0.00 92 1017.8
20260502112031 12 352 6.4 17.7 0.00 5.41 0.00 92 1017.7
20260502111541 12 360 6.4 14.5 0.00 5.41 0.00 92 1017.7
20260502111029 12 324 4.8 12.9 0.00 5.41 0.00 92 1017.6
20260502110529 12 329 4.8 12.9 0.00 5.41 0.00 91 1017.7
20260502110046 12 343 4.8 12.9 0.00 5.41 0.00 91 1017.6
20260502105527 12 38 3.2 8.0 0.00 5.41 0.00 91 1017.5
20260502105029 12 360 3.2 8.0 0.00 5.41 0.00 91 1017.6
20260502104544 13 35 1.6 9.7 0.00 5.41 0.00 91 1017.5
20260502104027 13 43 4.8 9.7 0.00 5.41 0.00 89 1017.4
20260502103532 13 38 3.2 9.7 0.00 5.41 0.00 89 1017.3
20260502103044 13 342 3.2 12.9 0.00 5.41 0.00 89 1017.1
20260502102531 13 51 3.2 12.9 0.00 5.41 0.00 89 1016.9
20260502102030 13 41 3.2 9.7 0.00 5.41 0.00 89 1016.8
20260502101603 13 42 4.8 14.5 0.00 5.41 0.00 89 1016.8
20260502101029 13 59 4.8 16.1 0.00 5.41 0.00 90 1016.7
20260502100529 13 35 4.8 16.1 0.00 5.41 0.00 90 1016.5
20260502091027 13 69 4.8 17.7 0.00 5.41 0.00 92 1015.7
20260502090529 13 57 4.8 17.7 0.00 5.41 0.00 91 1015.8
20260502071028 13 59 8.0 19.3 0.00 5.41 0.00 95 1015.6
20260502070529 13 59 4.8 22.5 0.00 5.41 0.00 95 1015.6
20260502070101 13 54 11.3 22.5 0.00 5.41 0.00 94 1015.4
20260502065529 13 350 8.0 24.1 0.00 5.41 0.00 94 1015.5
20260502065032 13 332 11.3 24.1 0.00 5.41 0.00 94 1015.5
20260502064547 13 338 9.7 24.1 0.00 5.41 0.00 95 1015.5
20260502064029 13 72 8.0 24.1 0.00 5.41 0.00 94 1015.5
20260502063529 13 350 8.0 20.9 0.00 5.41 0.00 94 1015.5
20260502063041 13 42 9.7 20.9 0.00 5.41 0.00 95 1015.5
20260502062531 13 36 6.4 25.7 0.00 5.41 0.00 95 1015.5
20260502062028 13 333 8.0 25.7 0.00 5.41 0.00 95 1015.4
20260502061544 13 44 9.7 22.5 0.00 5.41 0.00 95 1015.5
20260502061026 13 49 4.8 25.7 0.00 5.41 0.00 95 1015.4
20260502060527 13 57 12.9 29.0 0.00 5.41 0.00 95 1015.4
20260502060046 13 44 9.7 29.0 0.00 5.41 0.00 95 1015.5
20260502055526 13 350 11.3 29.0 0.00 5.41 0.00 95 1015.7
20260502055026 13 85 12.9 24.1 0.00 5.41 0.00 95 1015.5
20260502054600 13 50 11.3 24.1 0.00 5.41 0.00 95 1015.5
20260502054026 13 304 9.7 25.7 0.00 5.41 0.00 95 1015.7
20260502053526 13 37 9.7 25.7 0.00 5.41 0.00 95 1015.8
20260502053045 13 350 9.7 24.1 0.00 5.41 0.00 95 1015.8
20260502052528 13 78 8.0 24.1 0.00 5.41 0.00 95 1015.9
20260502052032 13 333 12.9 24.1 0.00 5.41 0.00 95 1015.7
20260502051547 13 77 12.9 20.9 0.00 5.41 0.00 96 1015.6
20260502051025 13 49 6.4 19.3 0.00 5.41 0.00 96 1015.5
20260502050528 13 88 8.0 29.0 0.00 5.41 0.00 96 1015.7
20260502050048 13 74 6.4 29.0 0.00 5.41 0.00 96 1015.7
20260502045528 13 56 8.0 29.0 0.00 5.46 5.41 96 1015.8
20260502045028 13 56 6.4 20.9 0.00 5.46 5.41 96 1015.7
20260502044541 13 360 8.0 24.1 0.00 5.46 5.41 96 1015.8
20260502044028 13 38 14.5 24.1 0.00 5.46 5.41 96 1015.8
20260502043529 13 38 8.0 16.1 0.00 5.46 5.41 96 1015.8
20260502043058 13 35 6.4 16.1 0.00 5.46 5.41 96 1015.7
20260502042526 13 42 8.0 17.7 0.00 5.46 5.41 96 1015.7
20260502042026 13 340 6.4 22.5 0.00 5.46 5.41 96 1015.7
20260502041604 13 63 8.0 22.5 0.03 5.46 5.41 97 1015.6
20260502041029 13 47 8.0 17.7 0.05 5.46 5.41 97 1015.6
20260502040526 13 360 8.0 22.5 0.05 5.46 5.41 97 1015.3
20260502040053 13 360 8.0 22.5 0.08 5.46 5.41 97 1015.6
20260502035529 13 38 8.0 22.5 0.08 5.51 5.41 97 1015.1
20260502035028 14 35 8.0 25.7 0.08 5.51 5.41 97 1015.0
20260502034545 13 41 11.3 25.7 0.08 5.51 5.41 98 1014.9
20260502034029 14 338 8.0 17.7 0.10 5.51 5.41 98 1014.9
20260502033529 14 346 4.8 20.9 0.10 5.51 5.41 98 1014.8
20260502033041 14 355 8.0 20.9 0.10 5.51 5.41 98 1014.5
20260502032528 14 48 6.4 19.3 0.10 5.51 5.41 98 1014.5
20260502032029 14 330 4.8 20.9 0.10 5.51 5.41 98 1014.2
20260502031547 14 331 8.0 20.9 0.08 5.49 5.36 98 1014.1
20260502031026 14 344 6.4 19.3 0.05 5.46 5.33 98 1013.6
20260502030529 14 74 8.0 19.3 0.05 5.46 5.33 98 1014.1
20260502030058 14 360 8.0 14.5 0.03 5.44 5.31 98 1013.8
20260502025528 14 53 8.0 17.7 0.03 5.44 5.31 98 1013.9
20260502025029 14 39 8.0 16.1 0.03 5.44 5.31 98 1013.7
20260502024600 15 39 3.2 14.5 0.03 5.44 5.31 98 1013.9
20260502024026 15 44 4.8 25.7 0.00 5.41 5.28 98 1014.2
20260502023527 15 51 6.4 25.7 0.03 5.41 5.28 98 1014.1
20260502023103 15 45 8.0 25.7 0.03 5.41 5.28 98 1014.0
20260502022528 15 355 4.8 19.3 0.05 5.41 5.28 98 1013.9
20260502022028 15 57 8.0 16.1 0.05 5.41 5.28 98 1013.8
20260502021545 15 54 8.0 16.1 0.05 5.41 5.28 98 1014.0
20260502021028 15 40 8.0 16.1 0.08 5.41 5.28 98 1013.9
20260502020526 15 46 3.2 20.9 0.08 5.41 5.28 98 1013.7
20260502020044 15 36 4.8 20.9 0.10 5.41 5.28 98 1013.6
20260502015529 15 38 8.0 20.9 0.15 5.71 5.28 98 1013.6
20260502015027 15 63 4.8 12.9 0.18 5.71 5.28 98 1013.6
20260502014543 15 53 6.4 19.3 0.20 5.71 5.28 98 1013.5
20260502014031 15 53 8.0 19.3 0.28 5.71 5.28 98 1013.0
20260502013526 15 36 8.0 16.1 0.33 5.69 5.28 98 1013.1
20260502013052 15 355 6.4 16.1 0.36 5.69 5.28 98 1013.0
20260502012526 15 42 4.8 14.5 0.33 5.66 5.26 98 1013.1
20260502012026 15 61 4.8 14.5 0.33 5.66 5.26 98 1012.4
20260502011600 15 76 4.8 14.5 0.33 5.66 5.26 98 1011.8
20260502011025 15 65 3.2 8.0 0.30 5.64 5.23 98 1011.4
20260502010526 15 64 3.2 16.1 0.30 5.64 5.23 98 1011.4
20260502010044 15 74 3.2 19.3 0.28 5.61 5.21 98 1011.5
20260502005526 15 36 4.8 27.4 0.25 5.56 5.16 98 1011.7
20260502005030 15 350 11.3 27.4 0.23 5.54 5.13 98 1011.6
20260502004544 15 55 11.3 24.1 0.18 5.49 5.08 98 1011.5
20260502004028 15 360 8.0 25.7 0.13 5.41 5.00 98 1011.6
20260502003527 15 346 12.9 30.6 0.10 5.33 4.95 98 1011.2
20260502003041 15 43 12.9 30.6 0.08 5.31 4.93 98 1011.0
20260502002527 15 346 8.0 29.0 0.08 5.31 4.93 98 1011.2
20260502002026 15 338 11.3 29.0 0.08 5.31 4.93 98 1010.9
20260502001548 15 38 8.0 30.6 0.10 5.31 4.93 98 1010.4
20260502001032 15 56 17.7 30.6 0.13 5.31 4.93 98 1010.0
20260502000525 15 44 9.7 24.1 0.15 5.31 4.93 98 1010.8
20260502000055 16 53 8.0 24.1 0.15 5.31 4.93 98 1010.8
20260501235525 16 55 12.9 24.1 0.15 5.28 4.90 98 1011.2
20260501235026 16 49 9.7 22.5 0.15 5.28 4.90 98 1011.0
20260501234545 16 54 9.7 22.5 0.13 5.28 4.88 98 1010.6
20260501234026 16 38 11.3 22.5 0.13 5.28 4.88 98 1010.3
20260501233525 16 44 11.3 22.5 0.15 5.26 4.85 98 1010.1
20260501233109 16 74 4.8 24.1 0.18 5.26 4.85 99 1010.0
20260501232525 16 51 4.8 24.1 0.20 5.26 4.85 99 1009.9
20260501232025 16 352 9.7 22.5 0.23 5.26 4.85 99 1009.8
20260501231609 16 92 8.0 19.3 0.23 5.23 4.83 99 1009.6
20260501231025 16 38 6.4 22.5 0.25 5.21 4.80 99 1009.5
20260501230525 16 341 6.4 22.5 0.23 5.18 4.78 99 1009.9
20260501230115 16 344 6.4 22.5 0.23 5.18 4.78 99 1010.0
20260501225526 16 38 6.4 17.7 0.23 5.16 4.75 99 1010.2
20260501225026 16 360 4.8 17.7 0.23 5.16 4.75 99 1010.2
20260501224556 16 130 3.2 17.7 0.23 5.16 4.75 99 1010.3
20260501224026 16 96 1.6 8.0 0.23 5.13 4.72 99 1010.5
20260501223526 16 96 0.0 6.4 0.23 5.11 4.70 99 1010.7
20260501223051 16 0 1.6 22.5 0.25 5.08 4.67 99 1011.1
20260501222528 16 56 6.4 22.5 0.25 5.05 4.65 99 1011.1
20260501222026 16 55 6.4 20.9 0.30 5.03 4.62 99 1010.9
20260501221544 16 110 6.4 20.9 0.38 4.98 4.57 99 1010.9
20260501221029 17 82 4.8 17.7 0.43 4.95 4.55 99 1010.7
20260501220526 17 40 8.0 17.7 0.48 4.95 4.55 99 1010.5
20260501220046 16 38 6.4 16.1 0.51 4.95 4.55 99 1010.6
20260501215528 16 88 3.2 11.3 0.51 4.93 4.52 99 1010.3
20260501215028 16 107 4.8 14.5 0.56 4.93 4.52 99 1010.3
20260501214542 17 327 3.2 14.5 0.61 4.93 4.52 99 1010.2
20260501214026 17 320 3.2 9.7 0.61 4.90 4.50 99 1010.6
20260501213526 17 70 1.6 9.7 0.64 4.88 4.47 99 1010.5
20260501213041 17 100 1.6 9.7 0.76 4.83 4.42 99 1009.4
20260501212526 17 154 1.6 12.9 0.89 4.80 4.39 99 1010.7
20260501212027 17 42 3.2 12.9 0.94 4.72 4.32 99 1010.0
20260501211542 17 117 1.6 16.1 0.84 4.60 4.19 99 1010.7
20260501211026 17 55 6.4 16.1 0.76 4.52 4.11 99 1010.6
20260501210529 17 52 3.2 17.7 0.69 4.45 4.04 99 1010.3
20260501210044 17 45 3.2 17.7 0.71 4.45 4.04 99 1010.2
20260501205527 17 360 6.4 12.9 0.74 4.42 4.01 99 1010.0
20260501205028 17 40 1.6 14.5 0.79 4.37 3.96 99 1009.4
20260501204546 17 72 3.2 14.5 0.79 4.32 3.91 99 1010.1
20260501204026 17 333 4.8 14.5 0.81 4.29 3.89 99 1010.0
20260501203526 17 54 3.2 12.9 0.79 4.22 3.81 99 1008.8
20260501203040 17 150 3.2 17.7 0.61 4.04 3.63 99 1008.7
20260501202526 17 77 4.8 14.5 0.51 3.91 3.51 99 1010.3
20260501202029 17 334 3.2 16.1 0.43 3.78 3.38 99 1009.9
20260501201544 17 42 8.0 19.3 0.46 3.76 3.35 99 1009.4
20260501201027 17 355 6.4 19.3 0.46 3.76 3.35 99 1008.5
20260501200532 17 71 3.2 12.9 0.46 3.76 3.35 99 1008.5
20260501200044 17 42 1.6 19.3 0.43 3.73 3.33 99 1008.2
20260501195529 17 89 3.2 19.3 0.33 3.63 3.23 99 1009.1
20260501195029 17 65 6.4 19.3 0.30 3.58 3.17 99 1010.0
20260501194541 17 46 6.4 14.5 0.25 3.53 3.12 99 1010.3
20260501194028 17 321 4.8 9.7 0.18 3.45 3.05 99 1010.0
20260501193530 17 0 1.6 8.0 0.15 3.43 3.02 99 1009.5
20260501193041 17 93 3.2 8.0 0.15 3.43 3.02 99 1008.8
20260501192530 17 82 1.6 16.1 0.13 3.40 2.97 99 1009.1
20260501192031 17 323 4.8 16.1 0.08 3.35 2.95 99 1009.3
20260501191548 17 71 3.2 25.7 0.03 3.30 2.90 99 1009.6
20260501191032 17 82 4.8 25.7 0.03 3.30 2.90 99 1010.0
20260501190529 17 39 9.7 25.7 0.03 3.30 2.90 99 1009.7
20260501190042 17 40 8.0 20.9 0.03 3.30 2.90 99 1009.8
20260501185529 17 52 4.8 19.3 0.03 3.30 2.90 99 1010.2
20260501185029 17 95 8.0 19.3 0.00 3.28 2.87 99 1010.2
20260501184551 17 360 4.8 9.7 0.00 3.28 2.87 99 1009.9
20260501184030 17 51 3.2 19.3 0.00 3.28 2.87 99 1009.9
20260501183529 17 0 6.4 22.5 0.00 3.28 2.87 99 1009.9
20260501183045 17 73 9.7 22.5 0.00 3.28 2.87 99 1009.7
20260501182529 17 47 4.8 19.3 0.00 3.28 2.87 99 1009.7
20260501182033 17 323 6.4 12.9 0.00 3.28 2.87 99 1009.7